Location: Jaite
(41.2884°N, 81.5737°W)
Time: 22:11:59
(UTC+00:00)

Cosmos 1610 Rocket - Pass Details

Date: 18 January 2020
Orbit: 953 x 1002 km, 82.9° (Epoch: 16 February)

Event Time Altitude Azimuth Distance (km) Brightness Sun altitude
Rises 10:52:36 0° 350° (N) 3,674 7.3 -21.5°
Reaches altitude 10° 10:55:07 10° 349° (NNW) 2,730 6.6 -21.0°
Maximum altitude 11:01:20 73° 266° (W) 1,028 4.4 -19.9°
Drops below altitude 10° 11:07:37 10° 183° (S) 2,745 7.0 -18.7°
Sets 11:10:08 0° 181° (S) 3,695 7.7 -18.2°
